Location: Unspecified
(48.2082°N, 0.0000°E)
Time: 00:35:32
(UTC+00:00)

Altair - Pass Details

Date: 23 June 2019
Orbit: 1501 x 1683 km, 47.2° (Epoch: 19 July)

Event Time Altitude Azimuth Distance (km) Brightness Sun altitude
Rises 20:03:48 0° 237° (WSW) 4,696 10.3 -0.7°
Reaches altitude 10° 20:06:49 10° 235° (SW) 3,736 9.8 -1.1°
Maximum altitude 20:16:11 66° 156° (SSE) 1,721 7.6 -2.3°
Drops below altitude 10° 20:25:57 10° 77° (ENE) 3,888 9.3 -3.6°
Sets 20:29:09 0° 75° (ENE) 4,895 9.8 -4.0°
